| time (UTC) | temp C | wind direction | speed KPH | gust KPH | rain 1hr cm | rain 24hr cm | rain mn cm | humidity % | barometer mb |
| 20260906073114 | 22 | 0 | 0.0 | 0.0 | 0.00 | 0.00 | 0.00 | 84 | 1013.0 |
| 20260906071602 | 22 | 0 | 0.0 | 0.0 | 0.00 | 0.00 | 0.00 | 84 | 1012.9 |
| 20260906070057 | 22 | 263 | 1.6 | 4.8 | 0.00 | 0.00 | 0.00 | 84 | 1013.0 |
| 20260906064607 | 22 | 0 | 0.0 | 0.0 | 0.00 | 0.00 | 0.00 | 83 | 1013.1 |
| 20260906063057 | 22 | 0 | 0.0 | 4.8 | 0.00 | 0.00 | 0.00 | 83 | 1013.1 |
| 20260906061605 | 22 | 0 | 0.0 | 3.2 | 0.00 | 0.00 | 0.00 | 82 | 1013.0 |
| 20260906060104 | 22 | 266 | 1.6 | 6.4 | 0.00 | 0.00 | 0.00 | 81 | 1012.8 |
| 20260906054603 | 22 | 263 | 1.6 | 9.7 | 0.00 | 0.00 | 0.00 | 80 | 1012.9 |
| 20260906053057 | 22 | 286 | 3.2 | 9.7 | 0.00 | 0.00 | 0.00 | 79 | 1013.0 |
| 20260906051607 | 22 | 269 | 1.6 | 9.7 | 0.00 | 0.00 | 0.00 | 79 | 1013.0 |
| 20260906050110 | 23 | 272 | 4.8 | 9.7 | 0.00 | 0.00 | 0.00 | 76 | 1013.0 |
| 20260906044559 | 23 | 273 | 3.2 | 9.7 | 0.00 | 0.00 | 0.00 | 75 | 1013.0 |
| 20260906043104 | 22 | 271 | 3.2 | 4.8 | 0.00 | 0.00 | 0.00 | 75 | 1013.0 |
| 20260906041605 | 22 | 269 | 1.6 | 3.2 | 0.00 | 0.00 | 0.00 | 76 | 1013.0 |
| 20260906034639 | 22 | 271 | 1.6 | 3.2 | 0.00 | 0.00 | 0.00 | 76 | 1012.9 |
| 20260906033056 | 22 | 0 | 0.0 | 0.0 | 0.00 | 0.00 | 0.00 | 74 | 1012.7 |
| 20260906031554 | 23 | 0 | 0.0 | 4.8 | 0.00 | 0.00 | 0.00 | 73 | 1012.8 |
| 20260906030056 | 23 | 0 | 0.0 | 4.8 | 0.00 | 0.00 | 0.00 | 72 | 1012.7 |
| 20260906024602 | 23 | 277 | 0.0 | 4.8 | 0.00 | 0.00 | 0.00 | 72 | 1012.7 |
| 20260906023058 | 22 | 271 | 1.6 | 6.4 | 0.00 | 0.00 | 0.00 | 72 | 1012.6 |
| 20260906021604 | 23 | 0 | 0.0 | 6.4 | 0.00 | 0.00 | 0.00 | 77 | 1012.6 |
| 20260906020100 | 23 | 250 | 1.6 | 9.7 | 0.00 | 0.00 | 0.00 | 76 | 1012.7 |
| 20260906014554 | 23 | 360 | 3.2 | 12.9 | 0.00 | 0.00 | 0.00 | 77 | 1012.7 |
| 20260906013106 | 23 | 259 | 6.4 | 14.5 | 0.00 | 0.00 | 0.00 | 75 | 1012.7 |
| 20260906011556 | 24 | 256 | 8.0 | 16.1 | 0.00 | 0.00 | 0.00 | 70 | 1012.8 |
| 20260906010058 | 26 | 262 | 8.0 | 14.5 | 0.00 | 0.00 | 0.00 | 67 | 1012.7 |
| 20260906004603 | 25 | 263 | 8.0 | 14.5 | 0.00 | 0.00 | 0.00 | 68 | 1012.5 |
| 20260906003059 | 26 | 360 | 6.4 | 16.1 | 0.00 | 0.00 | 0.00 | 67 | 1012.6 |
| 20260906001555 | 26 | 254 | 6.4 | 16.1 | 0.00 | 0.00 | 0.00 | 66 | 1012.4 |
| 20260906000106 | 26 | 360 | 6.4 | 16.1 | 0.00 | 0.00 | 0.00 | 64 | 1012.5 |
| 20260905234620 | 26 | 244 | 9.7 | 22.5 | 0.00 | 0.00 | 0.00 | 67 | 1012.6 |
| 20260905233102 | 26 | 360 | 11.3 | 19.3 | 0.00 | 0.00 | 0.00 | 65 | 1012.5 |
| 20260905231555 | 26 | 249 | 9.7 | 19.3 | 0.00 | 0.00 | 0.00 | 63 | 1012.5 |
| 20260905230104 | 26 | 257 | 11.3 | 19.3 | 0.00 | 0.00 | 0.00 | 66 | 1012.5 |
| 20260905224553 | 26 | 238 | 9.7 | 19.3 | 0.00 | 0.00 | 0.00 | 66 | 1012.7 |
| 20260905223057 | 26 | 234 | 11.3 | 19.3 | 0.00 | 0.00 | 0.00 | 64 | 1012.8 |
| 20260905221601 | 26 | 300 | 9.7 | 22.5 | 0.00 | 0.00 | 0.00 | 62 | 1012.9 |
| 20260905214605 | 26 | 360 | 9.7 | 19.3 | 0.00 | 0.00 | 0.00 | 54 | 1013.2 |
| 20260905213101 | 26 | 360 | 9.7 | 17.7 | 0.00 | 0.00 | 0.00 | 62 | 1013.3 |
| 20260905211556 | 26 | 270 | 11.3 | 19.3 | 0.00 | 0.00 | 0.00 | 66 | 1013.5 |
| 20260905210105 | 26 | 360 | 8.0 | 17.7 | 0.00 | 0.00 | 0.00 | 62 | 1013.5 |
| 20260905204555 | 26 | 248 | 8.0 | 17.7 | 0.00 | 0.00 | 0.00 | 65 | 1013.8 |
| 20260905203111 | 25 | 250 | 11.3 | 17.7 | 0.00 | 0.00 | 0.00 | 67 | 1013.9 |
| 20260905201557 | 25 | 248 | 8.0 | 16.1 | 0.00 | 0.00 | 0.00 | 69 | 1014.0 |
| 20260905194603 | 24 | 360 | 8.0 | 17.7 | 0.00 | 0.00 | 0.00 | 69 | 1014.1 |
| 20260905193102 | 24 | 261 | 8.0 | 16.1 | 0.00 | 0.00 | 0.00 | 69 | 1014.3 |
| 20260905191555 | 24 | 265 | 6.4 | 16.1 | 0.00 | 0.00 | 0.00 | 69 | 1014.5 |
| 20260905190103 | 24 | 248 | 9.7 | 14.5 | 0.00 | 0.00 | 0.00 | 67 | 1014.5 |
| 20260905184606 | 24 | 257 | 6.4 | 16.1 | 0.00 | 0.00 | 0.00 | 67 | 1014.6 |
| 20260905183107 | 24 | 360 | 6.4 | 16.1 | 0.00 | 0.00 | 0.00 | 67 | 1014.9 |
| 20260905181555 | 23 | 250 | 9.7 | 19.3 | 0.00 | 0.00 | 0.00 | 70 | 1014.9 |
| 20260905180100 | 23 | 240 | 8.0 | 12.9 | 0.00 | 0.00 | 0.00 | 68 | 1014.9 |
| 20260905174606 | 23 | 254 | 4.8 | 12.9 | 0.00 | 0.00 | 0.00 | 65 | 1014.7 |
| 20260905173102 | 23 | 290 | 6.4 | 11.3 | 0.00 | 0.00 | 0.00 | 64 | 1014.5 |
| 20260905171635 | 24 | 248 | 3.2 | 8.0 | 0.00 | 0.00 | 0.00 | 60 | 1014.5 |
| 20260905170105 | 23 | 254 | 1.6 | 9.7 | 0.00 | 0.00 | 0.00 | 60 | 1014.4 |
| 20260905164556 | 25 | 253 | 1.6 | 6.4 | 0.00 | 0.00 | 0.00 | 58 | 1014.4 |
| 20260905163056 | 24 | 263 | 3.2 | 8.0 | 0.00 | 0.00 | 0.00 | 61 | 1014.3 |
| 20260905161558 | 24 | 236 | 1.6 | 6.4 | 0.00 | 0.00 | 0.00 | 59 | 1014.3 |
| 20260905160107 | 26 | 112 | 3.2 | 14.5 | 0.00 | 0.00 | 0.00 | 56 | 1014.3 |
| 20260905154620 | 24 | 87 | 1.6 | 6.4 | 0.00 | 0.00 | 0.00 | 65 | 1014.3 |
| 20260905153053 | 21 | 51 | 0.0 | 4.8 | 0.00 | 0.00 | 0.00 | 68 | 1014.2 |
| 20260905151601 | 23 | 55 | 1.6 | 4.8 | 0.00 | 0.00 | 0.00 | 65 | 1014.2 |
| 20260905150105 | 22 | 55 | 1.6 | 6.4 | 0.00 | 0.00 | 0.00 | 67 | 1014.0 |
| 20260905144556 | 22 | 0 | 0.0 | 3.2 | 0.00 | 0.00 | 0.00 | 66 | 1014.0 |
| 20260905143102 | 21 | 5 | 1.6 | 4.8 | 0.00 | 0.00 | 0.00 | 72 | 1013.9 |
| 20260905141557 | 20 | 5 | 0.0 | 3.2 | 0.00 | 0.00 | 0.00 | 78 | 1013.5 |
| 20260905140057 | 18 | 0 | 0.0 | 4.8 | 0.00 | 0.00 | 0.00 | 84 | 1013.5 |
| 20260905134602 | 16 | 5 | 1.6 | 6.4 | 0.00 | 0.00 | 0.00 | 86 | 1013.2 |
| 20260905133056 | 16 | 9 | 1.6 | 6.4 | 0.00 | 0.00 | 0.00 | 86 | 1012.9 |
| 20260905131555 | 16 | 352 | 1.6 | 6.4 | 0.00 | 0.00 | 0.00 | 86 | 1012.9 |
| 20260905130101 | 16 | 348 | 1.6 | 6.4 | 0.00 | 0.00 | 0.00 | 86 | 1013.0 |
| 20260905124558 | 16 | 360 | 1.6 | 4.8 | 0.00 | 0.00 | 0.00 | 86 | 1013.1 |
| 20260905123056 | 16 | 5 | 1.6 | 6.4 | 0.00 | 0.00 | 0.00 | 86 | 1013.1 |
| 20260905121600 | 16 | 15 | 3.2 | 6.4 | 0.00 | 0.00 | 0.00 | 86 | 1013.1 |
| 20260905120059 | 16 | 12 | 1.6 | 4.8 | 0.00 | 0.00 | 0.00 | 86 | 1013.1 |
| 20260905114607 | 16 | 0 | 3.2 | 6.4 | 0.00 | 0.00 | 0.00 | 86 | 1013.0 |
| 20260905113054 | 16 | 5 | 0.0 | 4.8 | 0.00 | 0.00 | 0.00 | 86 | 1013.1 |
| 20260905111622 | 16 | 0 | 0.0 | 4.8 | 0.00 | 0.00 | 0.00 | 86 | 1013.2 |
| 20260905110106 | 16 | 360 | 1.6 | 4.8 | 0.00 | 0.00 | 0.00 | 86 | 1013.3 |
| 20260905104619 | 16 | 343 | 0.0 | 6.4 | 0.00 | 0.00 | 0.00 | 86 | 1013.3 |
| 20260905103056 | 16 | 338 | 0.0 | 3.2 | 0.00 | 0.00 | 0.00 | 86 | 1013.3 |
| 20260905101554 | 17 | 338 | 1.6 | 4.8 | 0.00 | 0.00 | 0.00 | 86 | 1013.3 |
| 20260905100056 | 17 | 323 | 1.6 | 4.8 | 0.00 | 0.00 | 0.00 | 86 | 1013.4 |
| 20260905094715 | 17 | 0 | 0.0 | 3.2 | 0.00 | 0.00 | 0.00 | 86 | 1013.4 |
| 20260905093126 | 17 | 0 | 1.6 | 3.2 | 0.00 | 0.00 | 0.00 | 86 | 1013.4 |
| 20260905091602 | 17 | 284 | 1.6 | 3.2 | 0.00 | 0.00 | 0.00 | 86 | 1013.5 |
| 20260905090052 | 17 | 0 | 0.0 | 3.2 | 0.00 | 0.00 | 0.00 | 86 | 1013.5 |
| 20260905084605 | 17 | 284 | 1.6 | 4.8 | 0.00 | 0.00 | 0.00 | 86 | 1013.6 |
| 20260905083056 | 17 | 283 | 0.0 | 4.8 | 0.00 | 0.00 | 0.00 | 85 | 1013.8 |
| 20260905081557 | 17 | 259 | 1.6 | 3.2 | 0.00 | 0.00 | 0.00 | 86 | 1014.0 |
| 20260905080107 | 17 | 259 | 0.0 | 1.6 | 0.00 | 0.00 | 0.00 | 86 | 1014.3 |
| 20260905074602 | 17 | 259 | 1.6 | 3.2 | 0.00 | 0.00 | 0.00 | 85 | 1014.2 |